Location: Newark
(48.8604°N, 2.3376°E)
Time: 20:10:04
(UTC+00:00)

Envisat - Pass Details

Date: 30 September 2021
Orbit: 764 x 766 km, 98.2° (Epoch: 20 October)

Event Time Altitude Azimuth Distance (km) Brightness Sun altitude
Rises 04:10:08 0° 23° (NNE) 3,243 6.8 -16.9°
Reaches altitude 10° 04:12:47 10° 35° (NE) 2,311 6.2 -16.5°
Maximum altitude 04:17:06 28° 93° (E) 1,426 5.2 -15.8°
Drops below altitude 10° 04:21:24 10° 152° (SSE) 2,296 5.7 -15.1°
Sets 04:24:01 0° 164° (SSE) 3,217 6.3 -14.7°
